Location: Campolattaro
(41.2833°N, 14.7333°E)
Time: 17:44:44
(UTC+00:00)

Cosmos 773 Rocket - Pass Details

Date: 19 May 2025
Orbit: 742 x 772 km, 74.1° (Epoch: 16 June)

Event Time Altitude Azimuth Distance (km) Brightness Sun altitude
Exits shadow 20:11:34 32° 137° (SE) 1,262 4.5 -17.7°
Maximum altitude 20:12:56 38° 102° (ESE) 1,124 4.5 -17.8°
Drops below altitude 10° 20:17:39 10° 35° (NE) 2,264 6.6 -18.4°
Sets 20:20:08 0° 28° (NNE) 3,190 7.5 -18.7°
